Location: Beang
(6.6177°N, 10.9863°W)
Time: 04:27:25
(UTC+00:00)

MOS 1-B - Visible Passes

Search period start: 23 September 2020 00:00
Search period end: 03 October 2020 00:00
Orbit: 905 x 914 km, 99.4° (Epoch: 22 September)

Date Brightness Start Highest point End Pass type
(mag) Time Alt. Az. Time Alt. Az. Time Alt. Az.
23 Sep 6.7 05:24:02 10° NE 05:28:39 25° ESE 05:33:17 10° SSE visible
24 Sep 6.5 05:29:07 10° NE 05:33:59 28° ESE 05:38:52 10° SSE visible
25 Sep 6.3 05:34:14 10° NE 05:39:19 32° ESE 05:44:25 10° SSE visible
26 Sep 6.0 05:39:23 10° NE 05:44:39 37° ESE 05:49:55 10° SSE visible
27 Sep 5.8 05:44:34 10° NNE 05:49:59 42° ESE 05:55:24 10° S visible
28 Sep 5.5 05:49:46 10° NNE 05:55:18 48° ESE 06:00:51 10° S visible
28 Sep 6.5 18:47:25 10° SSW 18:52:30 32° WSW 18:57:34 10° NW visible
29 Sep 5.2 05:55:01 10° NNE 06:00:38 55° ESE 06:06:17 10° S visible
29 Sep 6.8 18:52:58 10° SSW 18:57:50 28° WSW 19:02:42 10° NW visible
30 Sep 5.0 06:00:16 10° NNE 06:05:58 63° ESE 06:11:41 10° S visible
30 Sep 7.0 18:58:33 10° SSW 19:03:09 25° WSW 19:07:46 10° NW visible
01 Oct 4.7 06:05:32 10° NNE 06:11:17 72° ESE 06:17:04 10° S visible
01 Oct 7.2 19:04:11 10° SSW 19:08:29 22° WSW 19:12:47 10° NW visible
02 Oct 4.6 06:10:50 10° NNE 06:16:37 82° ESE 06:22:25 10° S visible
02 Oct 7.3 19:09:53 10° SW 19:13:49 19° WSW 19:17:46 10° WNW visible
